This is the latest recevied weather packets stored in our database for station/object KP4OZ. If no packets are shown the sender has not sent any weather packets the latest 10 day(s).
| Time | Temp. | Humidity | Pressure | Rain* | Wind** | Luminosity | Snow |
|---|---|---|---|---|---|---|---|
| 1777902397 | 30.56° C | 61% | 1016.7 hPa | 0 mm | - | - | - |
| 1777902093 | 31.11° C | 60% | 1017 hPa | 0 mm | - | - | - |
| 1777901792 | 31.11° C | 59% | 1017 hPa | 0 mm | - | - | - |
| 1777901489 | 30.56° C | 61% | 1017.1 hPa | 0 mm | - | - | - |
| 1777901186 | 30.56° C | 61% | 1016.9 hPa | 0 mm | - | - | - |
| 1777900884 | 30.56° C | 61% | 1017.2 hPa | 0 mm | - | - | - |
| 1777900581 | 30.56° C | 61% | 1017 hPa | 0 mm | - | - | - |
| 1777900278 | 30.56° C | 60% | 1017.2 hPa | 0 mm | - | - | - |
| 1777899975 | 30.56° C | 61% | 1017 hPa | 0 mm | - | - | - |
| 1777899672 | 30° C | 61% | 1017.2 hPa | 0 mm | - | - | - |
| 1777899369 | 30.56° C | 61% | 1017.3 hPa | 0 mm | - | - | - |
| 1777899067 | 30° C | 62% | 1017.2 hPa | 0 mm | - | - | - |
| 1777898763 | 30° C | 63% | 1017.2 hPa | 0 mm | - | - | - |
| 1777898461 | 29.44° C | 64% | 1017.3 hPa | 0 mm | - | - | - |
| 1777898159 | 30° C | 64% | 1017.3 hPa | 0 mm | - | - | - |
| 1777897855 | 29.44° C | 65% | 1017.2 hPa | 0 mm | - | - | - |
| 1777897551 | 29.44° C | 66% | 1017.4 hPa | 0 mm | - | - | - |
| 1777897247 | 29.44° C | 67% | 1017.4 hPa | 0 mm | - | - | - |
| 1777896943 | 28.89° C | 69% | 1017.4 hPa | 0 mm | - | - | - |
| 1777896641 | 28.89° C | 68% | 1017.5 hPa | 0 mm | - | - | - |
| 1777896337 | 28.89° C | 70% | 1017.6 hPa | 0 mm | - | - | - |
| 1777896036 | 28.89° C | 70% | 1017.4 hPa | 0 mm | - | - | - |
| 1777895733 | 28.33° C | 71% | 1017.3 hPa | 0 mm | - | - | - |
| 1777895430 | 28.33° C | 72% | 1017.4 hPa | 0 mm | - | - | - |
| 1777895128 | 28.33° C | 72% | 1017.4 hPa | 0 mm | - | - | - |
* Rain latest hour (hover to see other rain measurements)
** Current wind speed in m/s (hover to see current wind gust speed)